Regional Weather Roundup
Issued by NWS

Home | Current Version | Previous Version | Graphics & Text | Print | Product List | Glossary On
Versions: 1 2 3 4 5 6 7 8 9 10 11 12 13 14 15 16 17 18 19 20 21 22 23 24 25 26 27 28 29 30 31 32 33 34 35 36 37 38 39 40 41 42 43 44 45 46 47 48 49 50
467
ASUS44 KJAN 231110
RWRMS

MISSISSIPPI HOURLY WEATHER ROUNDUP
NATIONAL WEATHER SERVICE JACKSON MS
500 AM CST SUN NOV 23 2014

NOTE: "FAIR: INDICATES FEW OR NO CLOUDS BELOW 12,000 FEET WITH NO
SIGNIFICANT WEATHER AND/OR OBSTRUCTIONS TO VISIBILITY.

MSZ001>002-007>008-010>013-018>021-025>028-034>036-231200-
NORTHWEST MISSISSIPPI

CITY           SKY/WX    TMP DP  RH WIND       PRES   REMARKS
CLARKSDALE     CLOUDY    59  59 100 SE14      29.77F
CLEVELAND      CLOUDY    59  57  94 SE8       29.75F
GREENWOOD      CLOUDY    60  57  89 SE10      29.77F
GREENVILLE     CLOUDY    61  57  87 SE15      29.74F
GRENADA        LGT RAIN  55  55 100 E9        29.80F
OLIVE BRANCH   CLOUDY    57  57 100 SE14G21   29.79F
OXFORD         CLOUDY    55  54  94 SE12G17   29.82F FOG
TUNICA         CLOUDY    59  55  88 SE14      29.77F
$$

MSZ003>006-009-014>017-022>024-029>033-037>039-231200-
NORTHEAST MISSISSIPPI

CITY           SKY/WX    TMP DP  RH WIND       PRES   REMARKS
COLUMBUS AFB   CLOUDY    59  55  86 SE17      29.84S
CORINTH        CLOUDY    57  55  94 SE5       29.85F FOG
GOLDN TRIANGLE CLOUDY    57  54  88 SE16      29.84S
STARKVILLE     CLOUDY    55  54  94 SE9       29.83F
TUPELO         CLOUDY    58  54  86 MISG      29.84F
$$

MSZ040-058-231200-
CENTRAL MISSISSIPPI

CITY           SKY/WX    TMP DP  RH WIND       PRES   REMARKS
JACKSON INTL   CLOUDY    61  59  93 SE10      29.77F
JACKSON HAWKNS CLOUDY    61  58  90 SE10G18   29.76F
MERIDIAN KEY   CLOUDY    58  57  97 E5        29.81F FOG
MERIDIAN NAS   CLOUDY    57  55  93 E10       29.82F FOG
RAYMOND        CLOUDY    63  57  82 SE12G17   29.76S
VICKSBURG      CLOUDY    62  58  86 SE12      29.74F
$$

MSZ059>079-231200-
SOUTH MISSISSIPPI

CITY           SKY/WX    TMP DP  RH WIND       PRES   REMARKS
BROOKHAVEN     CLOUDY    61  61 100 SE6       29.78F FOG
HATTIESBURG    CLOUDY    60  59  96 E6        29.78F FOG
MCCOMB         LGT RAIN  61  59  93 E8        29.75F FOG
NATCHEZ        CLOUDY    63  59  88 SE8       29.73F
PINE BELT      CLOUDY    59  55  88 E6        29.79F
$$

MSZ080>082-231200-
COASTAL MISSISSIPPI

CITY           SKY/WX    TMP DP  RH WIND       PRES   REMARKS
BILOXI         CLOUDY    64  64 100 NE6       29.75F
PASCAGOULA     CLOUDY    65  65 100 E6        29.76F FOG
GULFPORT       LGT RAIN  64  63  96 E9        29.74F FOG
$$



USA.gov is the U.S. government's official web portal to all federal, state and local government web resources and services.